SCP
-0 -0 0 0 0 0 0 0 0 0 0 0 0 0 0 0 0 0 0 0 0 0 0 0 0 0 0 0 0 0 0 0 0 0 0 0 0 0 0 0 0 0 0
0 0 0 0 0 0 0 0 0 0 0 0 0 0 0 0 0 0 0 0 0 0 0 0 0 0 0 0 0 0 0 0 0 0 0 0 0 0 0 0 0 0 0
0 0 0 0 0 0 0 0 0 0 0 0 0 0 0 0 0 0 0 0 0 0 0 0 0 0 0 0 0 0 0 0 0 0 0 0 0 0 0 0 0 0 0
0 0 0 0 0 0 0 0 0 0 0 0 0 0 0 0 0 0 0 0 0 0 0 0 0 0 0 0 0 0 0 0 0 0 0 0 0 0 0 0 0 0 0
0 0 0 0 0 0 0 0 0 0 0 0 0 0 0 0 0 0 0 0 0 0 0 0 0 0 0 0 0 0 0 0 0 0 0 0 0 0 0 0 0 0 0
0 0 0 0 0 0 0 0 0 0 0 0 0 0 0 0 0 0 0 0 0 0 0 0 0 0 0 0 0 0 0 0 0 0 0 0 0 0 0 0 0 0 0
0 0 0 0 0 0 0 0 0 0 0 0 0 0 0 0 0 0 0 0 0 0 0 0 0 0 0 0 0 0 0 0 0 0 0 0 0 0 0 0 0 0 0
0 0 0 0 0 0 0 0 0 0 0 0 0 0 0 0 0 0 0 0 0 0 0 0 0 0 0 0 0 0 0 0 0 0 0 0 0 0 0 0 0 0 0
0 0 0 0 0 0 0 0 0 0 0 0 0 0 0 0 0 0 0 0 0 0 0 0 0 0 0 0 0 0 0 0 0 0 -0 -0 -0 -0 0 0 0 0 0
0 0 0 0 0 0 0 0 0 0 0 0 0 0 0 0 0 0 0 0 0 0 0 0 0 0 0 0 0 0 0 0 0 0 0 0 0 0 0 0 0 0 0
0 0 0 0 0 0 0 0 0 0 0 0 0 0 0 0 0 0 0 0 0 0 0 0 0 0 0 0 0 0 0 0 0 0 0 0 0 0 0 0 0 0 0
0 0 0 0 0 0 0 0 0 0 0 0 0 0 0 0 0 0 0 0 0 0 0 0 0 0 0 0 0 0 0 0 0 0 0 0 0 0 0 0 0 0 0
0 0 0 0 0 0 0 0 0 0 0 0 0 0 0 0 0 0 0 0 0 0 0 0 0 0 0 0 0 0 0 0 0 0 0 0 0 0 0 0 0 0 0
0 0 0 0 0 0 0 0 0 0 0 0 0 0 0 0 0 0 0 0 0 0 0 0 0 0 0 0 0 0 0 0 0 0 0 0 0 0 0 0 -0 0 0
0 0 0 0 0 0 0 0 0 0 0 0 0 0 0 0 0 0 0 0 0 0 0 0 0 0 0 0 0 0 0 0 0 0 0 0 0 0 0 -0 -0 -0 0
0 0 0 0 0 0 0 0 0 0 0 0 0 0 0 0 0 0 0 0 0 0 0 0 0 0 0 0 0 0 0 0 0 0 0 0 0 0 0 -0 -0 -0 0
0 0 0 0 0 0 0 0 0 0 0 0 0 0 0 0 0 0 0 0 0 0 0 0 0 0 0 0 0 0 0 0 0 0 0 0 0 0 -0 -0 -0 -0 0
0 0 0 0 0 0 0 0 0 0 0 0 0 0 0 0 0 0 0 0 0 0 0 0 0 0 0 0 0 0 0 0 0 0 0 0 -0 -0 -0 -0 -0 -0 0
0 0 0 0 0 0 0 0 0 0 0 0 0 0 0 0 0 0 0 0 0 0 0 0 0 0 0 0 0 0 0 0 0 0 0 -0 -0 -0 -0 -0 -0 0 0
0 0 0 0 0 0 0 0 0 0 0 0 0 0 0 0 0 0 0 0 0 0 0 0 0 0 0 0 0 0 0 0 -0 -0 -0 -0 -0 -0 -0 0 0 0 0
0 0 0 0 0 0 0 0 0 0 0 0 0 0 -0 0 0 0 0 0 0 0 0 0 -0 -0 -0 -0 -0 -0 -0 -0 -0 -0 -0 -0 -0 -0 -0 0 0 0 0
0 0 0 0 0 0 0 0 0 0 0 0 0 0 -0 0 0 0 0 0 0 0 0 0 -0 -0 -0 -0 -0 -0 -0 -0 -0 -0 -0 -0 -0 -0 0 0 0 0 0
0 0 0 0 0 0 0 0 0 0 0 0 0 0 0 0 0 0 0 0 -0 -0 -0 -0 -0 -0 -0 -0 -0 -0 -0 -0 -0 -0 -0 -0 -0 -0 0 0 0 0 0
0 0 0 0 0 0 0 0 0 0 0 0 -0 -0 -0 -0 -0 -0 -0 -0 -0 -0 -0 -0 -0 -0 -0 -0 -0 -0 -0 -0 -0 -0 -0 0 0 0 0 0 0 0 0
0 0 0 0 0 0 0 0 0 0 0 0 0 -0 -0 -0 -0 -0 -0 -0 -0 -0 -0 -0 -0 -0 -0 0 0 -0 0 0 0 0 0 0 0 0 0 0 0 0 0
0 0 0 0 0 0 0 0 0 0 0 0 0 0 0 0 -0 0 0 0 0 -0 -0 -0 -0 0 0 0 -0 -0 0 0 0 0 0 0 0 0 0 0 0 0 0
Wind_Speed_500mb
72 73 76 78 77 77 81 83 81 84 81 79 71 62 57 61 61 53 61 64 63 60 56 53 50 45 43 41 39 39 41 42 50 56 55 54 56 56 54 52 56 59 62
73 75 77 77 76 78 78 83 77 76 74 76 70 55 55 66 61 53 52 54 54 52 49 45 43 38 38 37 38 40 44 45 50 55 54 53 54 52 54 57 57 57 62
74 73 75 73 73 75 77 80 79 79 71 68 66 56 61 68 62 58 49 46 48 45 40 36 33 31 32 33 35 39 42 43 46 49 50 47 48 47 51 53 54 54 50
76 75 74 71 72 76 78 77 78 78 70 63 61 56 55 55 53 54 45 46 42 40 37 36 35 34 35 39 43 44 41 42 43 45 50 50 49 43 49 50 51 47 50
73 74 73 70 70 74 76 76 76 76 71 66 63 57 59 57 52 53 49 50 51 55 53 36 26 36 41 40 41 42 41 44 44 46 51 50 49 44 43 47 50 54 55
73 70 71 69 71 74 76 77 76 72 68 68 65 65 65 56 52 53 54 55 45 46 30 25 33 34 37 40 42 43 43 44 46 45 48 50 47 48 47 49 53 51 60
69 70 71 70 74 77 78 78 76 74 72 66 62 62 63 55 46 48 53 52 47 37 33 37 45 46 45 44 43 44 45 44 44 44 51 53 53 47 48 50 49 50 56
72 73 76 79 80 81 81 80 77 74 71 69 64 61 57 45 39 37 41 45 34 39 41 46 44 42 39 40 42 43 42 44 43 42 47 48 46 40 39 42 51 61 62
78 75 78 84 87 87 84 82 78 75 73 69 62 55 50 36 27 23 22 31 39 36 39 39 40 39 35 36 41 41 40 39 35 34 36 39 40 41 41 48 57 59 61
80 79 84 86 94 96 87 81 77 71 71 66 62 51 38 41 24 27 22 24 30 33 34 34 34 34 32 35 39 36 39 36 33 35 36 38 40 40 41 45 47 57 66
80 80 82 89 97 100 89 79 74 72 69 64 57 52 41 32 36 29 26 28 28 26 24 21 20 24 27 28 28 33 38 35 37 42 48 51 55 58 59 51 45 46 55
78 67 84 94 106 101 86 79 72 68 67 63 59 53 43 36 30 28 23 23 22 26 23 21 22 24 25 27 26 30 28 32 40 46 52 58 57 56 55 48 47 50 52
66 84 101 112 102 79 69 68 73 64 58 56 60 52 53 46 38 31 29 26 32 35 30 26 29 28 23 24 30 36 39 41 44 48 54 58 53 53 54 53 52 51 49
96 93 87 81 72 68 67 67 61 59 55 60 59 61 59 53 48 37 34 32 33 37 34 30 32 34 33 32 37 36 38 40 41 44 50 53 48 52 57 58 58 52 53
84 81 78 70 65 74 68 63 56 51 54 62 61 58 58 55 43 40 37 40 29 24 26 30 33 35 42 43 44 42 42 41 39 39 43 47 50 55 63 63 55 55 60
81 77 70 67 86 70 65 73 54 61 52 50 49 46 44 43 42 39 38 40 22 25 27 35 42 44 45 43 46 49 48 46 47 49 49 53 61 65 68 69 63 58 54
78 70 81 84 74 66 67 57 77 69 50 42 39 40 40 38 36 34 31 26 27 33 37 41 38 40 47 51 53 55 52 49 49 50 54 56 61 65 64 62 55 48 44
78 83 79 71 66 60 54 56 63 73 65 67 41 42 41 32 32 31 27 30 38 35 38 44 49 51 51 50 49 49 52 54 55 55 55 54 54 54 52 49 44 43 40
85 77 68 65 61 54 58 61 52 54 53 54 55 46 42 36 29 25 21 24 29 30 31 35 38 42 44 46 47 49 53 55 54 53 52 53 51 48 47 39 36 36 40
73 68 66 66 60 52 47 52 57 60 60 51 54 51 48 41 45 40 36 36 35 36 36 38 39 42 45 47 49 51 53 53 52 54 53 50 45 39 34 32 35 38 39
70 70 61 53 50 51 50 53 57 59 52 51 51 49 42 45 47 40 37 35 35 37 38 40 42 45 48 49 50 52 53 54 52 50 48 42 36 32 27 30 30 36 47
65 61 58 55 52 51 51 53 61 55 52 50 52 50 44 41 41 41 38 35 34 36 38 43 47 48 49 50 49 50 52 52 49 43 38 36 33 30 25 25 27 34 37
61 61 58 54 52 52 54 57 57 56 55 53 52 52 49 48 46 45 44 41 38 38 39 43 48 50 49 47 46 46 47 44 38 34 34 32 30 29 23 24 27 33 32
61 58 57 54 53 53 53 56 55 56 58 58 56 54 51 48 47 44 42 41 41 42 43 45 47 48 46 44 41 38 35 33 31 29 28 28 31 26 25 27 27 26 28
58 56 54 54 54 55 57 58 59 60 61 61 59 54 51 48 46 44 44 44 43 43 44 43 43 43 41 38 34 30 30 28 27 24 25 28 29 26 25 26 25 26 26
55 53 53 53 54 56 59 61 62 62 63 62 59 55 53 52 49 47 46 44 42 41 40 40 39 36 33 29 26 24 23 23 22 20 21 24 26 24 23 23 21 21 20
Wind_Direction_500mb
331 330 329 329 329 326 325 328 322 317 314 309 302 298 297 293 294 276 279 275 266 260 256 253 251 250 250 251 253 255 256 257 263 270 271 278 281 284 285 281 280 283 285
327 326 326 328 328 328 326 327 326 321 314 312 309 299 297 292 298 273 275 273 267 260 255 249 248 246 248 252 256 259 261 261 265 271 277 280 282 285 287 286 286 285 286
325 325 325 327 327 329 329 329 328 326 318 313 312 307 291 290 290 278 265 265 260 257 255 253 255 257 261 270 271 268 266 265 265 271 277 281 285 287 287 286 288 287 289
323 321 321 325 327 330 332 329 329 327 322 315 306 304 302 298 289 275 257 253 244 243 249 258 263 267 270 263 257 257 260 263 267 272 277 283 284 290 287 291 290 292 296
321 320 320 323 325 329 332 333 329 330 328 322 313 306 305 299 289 267 249 249 264 253 244 242 259 257 256 259 260 261 264 267 270 275 280 285 291 297 300 302 299 301 296
322 319 322 323 325 329 331 332 333 330 328 324 319 313 309 298 284 272 260 252 257 254 251 267 263 267 266 266 265 267 269 271 273 276 279 284 292 295 299 297 299 300 300
322 324 324 326 328 328 329 330 332 332 329 328 326 326 314 308 290 281 265 253 267 249 258 261 255 253 258 259 260 263 263 262 263 270 275 278 287 292 294 294 294 296 293
322 321 325 329 328 328 327 328 328 331 329 329 326 325 319 312 308 298 274 262 260 261 264 267 264 263 260 261 263 263 264 266 267 264 273 281 284 294 296 297 302 299 295
321 319 322 327 327 326 324 323 324 326 328 326 326 323 325 318 318 306 287 269 269 265 263 265 264 265 261 262 266 268 270 274 281 287 286 283 288 290 289 287 285 290 285
319 315 312 319 323 324 321 320 319 321 321 324 322 325 316 318 310 302 283 278 269 266 267 266 265 264 260 256 259 267 275 283 291 292 292 293 294 293 294 292 292 285 285
315 308 299 312 317 321 319 318 317 317 317 319 320 320 323 307 303 292 286 273 267 269 271 280 280 269 265 262 259 268 278 294 299 297 297 298 296 297 300 302 295 284 281
319 301 305 311 314 317 316 316 316 317 315 315 320 319 326 330 307 292 275 265 262 276 289 294 307 290 280 270 265 269 276 278 276 280 284 288 290 291 301 299 294 292 281
306 306 309 310 313 316 316 315 316 317 315 315 318 321 322 326 324 310 281 260 259 261 260 281 287 294 294 285 273 270 275 279 282 282 281 286 289 295 299 301 298 296 286
312 314 317 320 320 316 316 314 315 315 317 309 315 316 314 313 318 319 304 286 265 259 264 276 273 275 279 280 281 284 289 289 287 287 288 292 294 297 299 302 305 304 300
323 323 324 324 318 316 317 314 313 310 306 306 304 307 308 309 308 307 320 292 282 270 272 266 268 276 285 290 290 292 294 293 289 288 288 293 297 293 294 299 299 296 295
324 325 326 316 313 320 313 316 309 307 308 302 299 301 302 301 301 299 294 297 294 268 272 271 275 279 283 285 291 297 297 297 292 291 287 285 288 292 294 294 295 290 289
327 323 315 321 320 313 315 308 313 320 316 312 307 307 306 307 306 303 302 295 287 274 266 265 269 271 276 283 288 290 290 289 288 286 287 289 291 292 294 295 293 288 284
327 321 322 324 324 328 325 322 315 317 314 315 320 315 316 313 313 309 304 293 276 264 269 271 274 279 281 281 281 282 284 286 287 289 289 288 290 295 294 291 289 286 284
324 326 328 328 328 327 317 318 327 328 323 319 320 325 327 325 323 319 305 293 296 292 285 278 277 279 280 281 282 281 281 283 287 287 285 288 291 292 288 286 290 288 289
329 332 333 329 328 329 333 334 336 330 322 322 322 327 330 340 329 312 309 306 302 299 296 292 290 289 289 288 287 287 288 286 282 281 285 287 288 281 277 284 296 298 297
336 335 334 334 336 337 336 337 332 327 326 324 324 326 322 312 303 306 305 304 300 295 293 292 290 289 288 290 292 291 287 285 285 285 285 285 278 262 264 291 298 307 300
337 340 341 340 338 337 338 338 332 336 335 330 327 326 324 319 316 312 311 309 302 295 292 290 289 291 294 294 291 285 283 283 283 283 281 273 262 251 268 292 299 304 300
344 343 341 339 338 339 341 334 337 339 338 336 333 329 328 324 320 316 315 313 308 301 294 290 291 293 292 289 284 282 281 282 282 278 272 263 243 241 263 286 302 309 304
344 340 338 338 340 338 340 335 337 340 340 338 334 330 327 324 321 318 317 315 311 306 303 301 298 296 294 288 283 279 274 276 274 270 264 251 235 241 261 285 302 305 305
341 340 339 342 340 341 338 339 338 338 338 338 335 333 331 327 323 319 317 315 312 309 306 304 302 298 291 285 277 270 270 269 268 262 249 238 233 245 271 293 305 307 307
340 341 340 342 341 340 339 337 337 338 336 337 336 334 332 328 325 322 320 318 314 309 307 307 305 300 291 279 268 262 258 257 251 243 237 230 238 254 278 293 300 302 303
Wind_Speed_850mb
72 73 76 78 77 77 81 83 81 84 81 79 71 62 57 61 61 53 61 64 63 60 56 53 50 45 43 41 39 39 41 42 50 56 55 54 56 56 54 52 56 59 62
73 75 77 77 76 78 78 83 77 76 74 76 70 55 55 66 61 53 52 54 54 52 49 45 43 38 38 37 38 40 44 45 50 55 54 53 54 52 54 57 57 57 62
74 73 75 73 73 75 77 80 79 79 71 68 66 56 61 68 62 58 49 46 48 45 40 36 33 31 32 33 35 39 42 43 46 49 50 47 48 47 51 53 54 54 50
76 75 74 71 72 76 78 77 78 78 70 63 61 56 55 55 53 54 45 46 42 40 37 36 35 34 35 39 43 44 41 42 43 45 50 50 49 43 49 50 51 47 50
73 74 73 70 70 74 76 76 76 76 71 66 63 57 59 57 52 53 49 50 51 55 53 36 26 36 41 40 41 42 41 44 44 46 51 50 49 44 43 47 50 54 55
73 70 71 69 71 74 76 77 76 72 68 68 65 65 65 56 52 53 54 55 45 46 30 25 33 34 37 40 42 43 43 44 46 45 48 50 47 48 47 49 53 51 60
69 70 71 70 74 77 78 78 76 74 72 66 62 62 63 55 46 48 53 52 47 37 33 37 45 46 45 44 43 44 45 44 44 44 51 53 53 47 48 50 49 50 56
72 73 76 79 80 81 81 80 77 74 71 69 64 61 57 45 39 37 41 45 34 39 41 46 44 42 39 40 42 43 42 44 43 42 47 48 46 40 39 42 51 61 62
78 75 78 84 87 87 84 82 78 75 73 69 62 55 50 36 27 23 22 31 39 36 39 39 40 39 35 36 41 41 40 39 35 34 36 39 40 41 41 48 57 59 61
80 79 84 86 94 96 87 81 77 71 71 66 62 51 38 41 24 27 22 24 30 33 34 34 34 34 32 35 39 36 39 36 33 35 36 38 40 40 41 45 47 57 66
80 80 82 89 97 100 89 79 74 72 69 64 57 52 41 32 36 29 26 28 28 26 24 21 20 24 27 28 28 33 38 35 37 42 48 51 55 58 59 51 45 46 55
78 67 84 94 106 101 86 79 72 68 67 63 59 53 43 36 30 28 23 23 22 26 23 21 22 24 25 27 26 30 28 32 40 46 52 58 57 56 55 48 47 50 52
66 84 101 112 102 79 69 68 73 64 58 56 60 52 53 46 38 31 29 26 32 35 30 26 29 28 23 24 30 36 39 41 44 48 54 58 53 53 54 53 52 51 49
96 93 87 81 72 68 67 67 61 59 55 60 59 61 59 53 48 37 34 32 33 37 34 30 32 34 33 32 37 36 38 40 41 44 50 53 48 52 57 58 58 52 53
84 81 78 70 65 74 68 63 56 51 54 62 61 58 58 55 43 40 37 40 29 24 26 30 33 35 42 43 44 42 42 41 39 39 43 47 50 55 63 63 55 55 60
81 77 70 67 86 70 65 73 54 61 52 50 49 46 44 43 42 39 38 40 22 25 27 35 42 44 45 43 46 49 48 46 47 49 49 53 61 65 68 69 63 58 54
78 70 81 84 74 66 67 57 77 69 50 42 39 40 40 38 36 34 31 26 27 33 37 41 38 40 47 51 53 55 52 49 49 50 54 56 61 65 64 62 55 48 44
78 83 79 71 66 60 54 56 63 73 65 67 41 42 41 32 32 31 27 30 38 35 38 44 49 51 51 50 49 49 52 54 55 55 55 54 54 54 52 49 44 43 40
85 77 68 65 61 54 58 61 52 54 53 54 55 46 42 36 29 25 21 24 29 30 31 35 38 42 44 46 47 49 53 55 54 53 52 53 51 48 47 39 36 36 40
73 68 66 66 60 52 47 52 57 60 60 51 54 51 48 41 45 40 36 36 35 36 36 38 39 42 45 47 49 51 53 53 52 54 53 50 45 39 34 32 35 38 39
70 70 61 53 50 51 50 53 57 59 52 51 51 49 42 45 47 40 37 35 35 37 38 40 42 45 48 49 50 52 53 54 52 50 48 42 36 32 27 30 30 36 47
65 61 58 55 52 51 51 53 61 55 52 50 52 50 44 41 41 41 38 35 34 36 38 43 47 48 49 50 49 50 52 52 49 43 38 36 33 30 25 25 27 34 37
61 61 58 54 52 52 54 57 57 56 55 53 52 52 49 48 46 45 44 41 38 38 39 43 48 50 49 47 46 46 47 44 38 34 34 32 30 29 23 24 27 33 32
61 58 57 54 53 53 53 56 55 56 58 58 56 54 51 48 47 44 42 41 41 42 43 45 47 48 46 44 41 38 35 33 31 29 28 28 31 26 25 27 27 26 28
58 56 54 54 54 55 57 58 59 60 61 61 59 54 51 48 46 44 44 44 43 43 44 43 43 43 41 38 34 30 30 28 27 24 25 28 29 26 25 26 25 26 26
55 53 53 53 54 56 59 61 62 62 63 62 59 55 53 52 49 47 46 44 42 41 40 40 39 36 33 29 26 24 23 23 22 20 21 24 26 24 23 23 21 21 20
Wind_Direction_850mb
331 330 329 329 329 326 325 328 322 317 314 309 302 298 297 293 294 276 279 275 266 260 256 253 251 250 250 251 253 255 256 257 263 270 271 278 281 284 285 281 280 283 285
327 326 326 328 328 328 326 327 326 321 314 312 309 299 297 292 298 273 275 273 267 260 255 249 248 246 248 252 256 259 261 261 265 271 277 280 282 285 287 286 286 285 286
325 325 325 327 327 329 329 329 328 326 318 313 312 307 291 290 290 278 265 265 260 257 255 253 255 257 261 270 271 268 266 265 265 271 277 281 285 287 287 286 288 287 289
323 321 321 325 327 330 332 329 329 327 322 315 306 304 302 298 289 275 257 253 244 243 249 258 263 267 270 263 257 257 260 263 267 272 277 283 284 290 287 291 290 292 296
321 320 320 323 325 329 332 333 329 330 328 322 313 306 305 299 289 267 249 249 264 253 244 242 259 257 256 259 260 261 264 267 270 275 280 285 291 297 300 302 299 301 296
322 319 322 323 325 329 331 332 333 330 328 324 319 313 309 298 284 272 260 252 257 254 251 267 263 267 266 266 265 267 269 271 273 276 279 284 292 295 299 297 299 300 300
322 324 324 326 328 328 329 330 332 332 329 328 326 326 314 308 290 281 265 253 267 249 258 261 255 253 258 259 260 263 263 262 263 270 275 278 287 292 294 294 294 296 293
322 321 325 329 328 328 327 328 328 331 329 329 326 325 319 312 308 298 274 262 260 261 264 267 264 263 260 261 263 263 264 266 267 264 273 281 284 294 296 297 302 299 295
321 319 322 327 327 326 324 323 324 326 328 326 326 323 325 318 318 306 287 269 269 265 263 265 264 265 261 262 266 268 270 274 281 287 286 283 288 290 289 287 285 290 285
319 315 312 319 323 324 321 320 319 321 321 324 322 325 316 318 310 302 283 278 269 266 267 266 265 264 260 256 259 267 275 283 291 292 292 293 294 293 294 292 292 285 285
315 308 299 312 317 321 319 318 317 317 317 319 320 320 323 307 303 292 286 273 267 269 271 280 280 269 265 262 259 268 278 294 299 297 297 298 296 297 300 302 295 284 281
319 301 305 311 314 317 316 316 316 317 315 315 320 319 326 330 307 292 275 265 262 276 289 294 307 290 280 270 265 269 276 278 276 280 284 288 290 291 301 299 294 292 281
306 306 309 310 313 316 316 315 316 317 315 315 318 321 322 326 324 310 281 260 259 261 260 281 287 294 294 285 273 270 275 279 282 282 281 286 289 295 299 301 298 296 286
312 314 317 320 320 316 316 314 315 315 317 309 315 316 314 313 318 319 304 286 265 259 264 276 273 275 279 280 281 284 289 289 287 287 288 292 294 297 299 302 305 304 300
323 323 324 324 318 316 317 314 313 310 306 306 304 307 308 309 308 307 320 292 282 270 272 266 268 276 285 290 290 292 294 293 289 288 288 293 297 293 294 299 299 296 295
324 325 326 316 313 320 313 316 309 307 308 302 299 301 302 301 301 299 294 297 294 268 272 271 275 279 283 285 291 297 297 297 292 291 287 285 288 292 294 294 295 290 289
327 323 315 321 320 313 315 308 313 320 316 312 307 307 306 307 306 303 302 295 287 274 266 265 269 271 276 283 288 290 290 289 288 286 287 289 291 292 294 295 293 288 284
327 321 322 324 324 328 325 322 315 317 314 315 320 315 316 313 313 309 304 293 276 264 269 271 274 279 281 281 281 282 284 286 287 289 289 288 290 295 294 291 289 286 284
324 326 328 328 328 327 317 318 327 328 323 319 320 325 327 325 323 319 305 293 296 292 285 278 277 279 280 281 282 281 281 283 287 287 285 288 291 292 288 286 290 288 289
329 332 333 329 328 329 333 334 336 330 322 322 322 327 330 340 329 312 309 306 302 299 296 292 290 289 289 288 287 287 288 286 282 281 285 287 288 281 277 284 296 298 297
336 335 334 334 336 337 336 337 332 327 326 324 324 326 322 312 303 306 305 304 300 295 293 292 290 289 288 290 292 291 287 285 285 285 285 285 278 262 264 291 298 307 300
337 340 341 340 338 337 338 338 332 336 335 330 327 326 324 319 316 312 311 309 302 295 292 290 289 291 294 294 291 285 283 283 283 283 281 273 262 251 268 292 299 304 300
344 343 341 339 338 339 341 334 337 339 338 336 333 329 328 324 320 316 315 313 308 301 294 290 291 293 292 289 284 282 281 282 282 278 272 263 243 241 263 286 302 309 304
344 340 338 338 340 338 340 335 337 340 340 338 334 330 327 324 321 318 317 315 311 306 303 301 298 296 294 288 283 279 274 276 274 270 264 251 235 241 261 285 302 305 305
341 340 339 342 340 341 338 339 338 338 338 338 335 333 331 327 323 319 317 315 312 309 306 304 302 298 291 285 277 270 270 269 268 262 249 238 233 245 271 293 305 307 307
340 341 340 342 341 340 339 337 337 338 336 337 336 334 332 328 325 322 320 318 314 309 307 307 305 300 291 279 268 262 258 257 251 243 237 230 238 254 278 293 300 302 303